sat.trackr.live / text

‹ back to catalog

UNKNOWN

NORAD 82729

UNKNOWN UNKNOWN UNKNOWN

§ Identity

Operator
Country
Launch date
Launch site
Launch vehicle
Mass (kg)
RCS (m²)

External: N2YO · Heavens-Above

§ Orbital elements

Epoch: 2026-05-22T22:47:13.784640Z

Period
118.23 min
Inclination
67.9681°
Eccentricity
0.0836369
Mean motion
12.17962170 rev/d
Perigee alt
934.0 km
Apogee alt
2,268.8 km
Semi-major
7,979.6 km
B*
6.4710e-3
RAAN
227.0790°
Arg perigee
260.5876°
Mean anomaly
89.9726°
Rev number
55,483

§ Raw data

UNKNOWN1 82729U          26142.94946510  .00001937  00000+0  64710-2 0  99902 82729  67.9681 227.0790 0836369 260.5876  89.9726 12.17962170554835

JSON: /api/v1/satellites/82729 · /tle

For live sub-satellite position, see the globe view (requires WebGL).

§ Visibility from observer

Set your observer location to see the next 7 days of passes ≥ 10°. The values pass through the URL so the page stays shareable.

No JS? Fill the form by hand. The geolocation button needs JavaScript.